Location: Pinawa
(50.1500°N, 95.8830°W)
Time: 01:58:48
(UTC-05:00)

Daily predictions for brighter satellites

Satellite Brightness Start Highest point End
(mag) Time Altitude Azimuth Time Altitude Azimuth Time Altitude Azimuth
SL-16 R/B 4.4 00:05:19 10° N 00:08:06 19° NNE 00:08:06 19° NNE
Cosmos 2322 Rocket 4.4 00:30:02 10° NNW 00:32:29 21° N 00:32:29 21° N
CENTAUR R/B 4.0 00:33:45 29° NW 00:35:56 35° NNW 00:42:39 10° NE
Cosmos 2360 Rocket 4.4 01:20:59 10° NNW 01:23:22 20° N 01:23:22 20° N
ATLAS 3B R/B 4.1 01:29:52 10° NW 01:33:47 32° NNW 01:33:47 32° NNW
CZ-3A R/B 4.4 01:38:06 77° S 01:39:09 80° SE 02:53:35 10° ENE
CZ-4C R/B 4.1 01:46:49 10° NW 01:50:18 31° NNW 01:50:18 31° NNW
CENTAUR R/B 4.5 02:22:36 10° NW 02:28:43 30° N 02:35:25 10° ENE
Cosmos 2082 Rocket 4.2 02:33:30 23° N 02:33:30 23° N 02:36:08 10° NNE
ATLAS 5 CENTAUR R/B 3.9 02:37:21 29° NE 02:37:21 29° NE 02:41:37 10° E
NOSS 3-1 (C) 4.4 03:01:20 45° N 03:01:20 45° N 03:06:42 10° NE
NOSS 3-1 (A) 4.3 03:06:12 48° N 03:06:12 48° N 03:11:34 10° NE
CZ-2D R/B 4.1 03:04:11 10° NE 03:07:50 21° E 03:07:50 21° E
Cosmos 2219 Rocket 3.5 03:04:40 10° NNW 03:09:24 38° NE 03:09:24 38° NE
SL-16 R/B 3.0 03:20:48 57° ENE 03:20:48 57° ENE 03:26:45 10° N
ATLAS 2AS CENTAUR R/B 3.0 03:21:15 80° E 03:21:15 80° E 03:29:02 10° NE
Resurs 1-4 Rocket 3.4 03:29:29 10° NNE 03:34:08 35° E 03:34:08 35° E
NOSS 3-2 (A) 4.0 03:38:00 10° NW 03:45:18 78° NE 03:53:15 10° SE
IRS-1D 4.4 03:40:09 10° NNE 03:44:52 47° E 03:44:52 47° E
BREEZE-M DEB (TANK) 4.4 03:45:54 73° SSW 03:46:38 79° SSE 04:10:24 10° E
Cosmos 2333 Rocket 2.7 03:45:14 10° NNW 03:50:54 57° NE 03:56:30 10° SE
GEOS 3 Rocket 4.3 03:46:23 10° NE 03:50:17 51° NNE 03:50:17 51° NNE
Lacrosse 5 rocket 3.2 03:53:31 30° ENE 03:53:31 30° ENE 03:55:58 10° ENE
Okean O Rocket 4.1 03:55:37 10° NE 03:58:29 17° E 04:00:24 13° ESE
Cosmos 2239 Rocket 4.4 03:55:18 10° N 04:01:35 84° E 04:01:41 84° ESE
Cosmos 2237 Rocket 2.4 04:10:09 10° NNW 04:15:49 69° ENE 04:21:25 10° SE
IRAS Rocket 4.1 04:12:17 10° NNE 04:17:49 89° ENE 04:17:49 89° ENE
Lacrosse 5 3.6 04:18:00 21° SE 04:18:36 22° SE 04:22:27 10° ENE
NOSS 2-3 (C) 4.2 04:19:21 69° NNW 04:19:21 69° NNW 04:25:16 10° NE
CENTAUR R/B 3.8 04:13:58 10° NW 04:21:11 49° NNE 04:29:04 10° ESE
ATLAS 5 CENTAUR R/B 2.3 04:19:07 38° NW 04:21:35 88° NE 04:27:59 10° SE
NOSS 3-2 (C) 3.8 04:15:56 10° NW 04:23:18 85° SW 04:31:19 10° SE
Cosmos 1535 Rocket 4.4 04:20:47 10° NNW 04:26:44 66° W 04:26:44 66° W
Cosmos 1980 3.6 04:23:53 10° NNW 04:29:37 90° NE 04:35:19 10° SSE
ARIANE 5 R/B 2.5 04:25:25 10° NNE 04:30:10 69° NW 04:30:10 69° NW
Nadezhda 3 Rocket 4.0 04:32:33 57° W 04:32:44 58° WNW 04:38:55 10° N
ADEOS 4.0 04:28:04 10° N 04:32:31 49° NW 04:32:31 49° NW
Meteor 1-12 Rocket 4.4 04:27:23 10° NNW 04:32:42 58° WNW 04:32:42 58° WNW
MOZ.5/SAFIR/RUBIN 5/SL-8 4.0 04:31:38 38° SE 04:33:21 68° ENE 04:38:06 10° N
Meteor 2-16 Rocket 4.3 04:27:28 10° NNW 04:33:35 65° W 04:33:50 64° WSW
Cosmos 2219 3.0 04:34:25 72° W 04:34:42 73° WNW 04:40:21 10° NNE
SL-16 R/B 3.1 04:29:47 10° NNW 04:35:20 49° NE 04:40:50 10° SE
CZ-2D R/B 3.8 04:33:31 10° NNE 04:37:20 59° E 04:37:20 59° E
UNKNOWN OBJECT B 3.3 04:35:51 10° NNE 04:39:06 58° NNE 04:39:06 58° NNE
Cosmos 2112 Rocket 4.1 04:36:55 10° NNW 04:42:17 77° ENE 04:47:33 10° SSE
NOSS 2-3 (D) 4.4 04:43:58 51° WNW 04:44:37 54° NW 04:50:40 10° NE
Cosmos 1743 3.2 04:40:48 10° N 04:44:11 58° NE 04:44:11 58° NE
Cosmos 1680 Rocket 3.4 04:41:36 10° NNW 04:46:56 87° WSW 04:52:12 10° SSE
RESURS DK-1 4.3 04:46:01 19° SSE 04:47:46 26° ESE 04:51:13 10° NE
CZ-2D R/B 2.0 04:43:30 10° N 04:48:41 65° WNW 04:49:09 61° W
Meteor 1-18 Rocket 4.3 04:49:43 56° WSW 04:50:39 64° WNW 04:56:25 10° N
Cosmos 1727 Rocket 4.3 04:46:01 17° S 04:50:56 68° E 04:57:15 10° NNE
NOSS 3-4 (A) 4.1 04:48:17 30° S 04:51:19 53° ESE 04:57:43 10° NE
NOSS 3-4 (C) 4.1 04:48:21 29° S 04:51:26 53° ESE 04:57:49 10° NE
SL-24 R/B 4.2 04:50:56 53° S 04:52:05 80° W 04:56:56 10° N
Cosmos 2227 Rocket 2.8 04:49:36 26° S 04:52:36 52° ESE 04:58:06 10° NE
Okean 1 3.9 04:54:59 45° NNW 04:54:59 45° NNW 04:58:02 10° N
Cosmos 2219 Rocket 3.6 04:48:40 10° NW 04:50:56 23° NW 04:50:56 23° NW
ARGOS Delta rocket 3.9 04:52:28 10° N 04:57:14 60° WNW 04:57:40 58° W
Cosmos 1812 4.1 05:00:03 29° NNW 05:00:03 29° NNW 05:02:21 10° N
Cosmos 2297 Rocket 3.1 04:57:49 16° S 05:02:00 46° ESE 05:07:23 10° NE
Cosmos 2084 3.0 05:02:23 81° SE 05:02:25 81° SE 05:06:16 10° NE
SL-16 R/B 3.5 05:05:54 28° WNW 05:05:54 28° WNW 05:10:05 10° NNW
Cosmos 2058 Rocket 4.1 05:00:40 10° N 05:04:54 47° ENE 05:09:07 10° SSE
PSLV R/B 4.0 05:01:02 10° NNE 05:05:09 73° ESE 05:06:38 38° S
NOSS 0 Rocket 4.2 05:06:02 10° NW 05:11:49 41° WSW 05:17:35 10° S
IRS-1C Rocket 4.1 05:07:15 10° NNE 05:12:35 80° ESE 05:16:36 18° S
ATLAS 2AS CENTAUR R/B 3.8 05:08:41 26° W 05:12:42 43° NNW 05:20:26 10° NE
Cosmos 724 4.3 05:06:27 10° NW 05:12:42 86° SW 05:18:57 10° SE
MOS 1-B 4.3 05:07:03 10° N 05:12:47 66° WNW 05:15:27 33° SW
Resurs 1-4 Rocket 2.6 05:09:17 10° N 05:14:16 41° WNW 05:15:12 38° W
Cosmos 1153 Rocket 4.4 05:08:25 10° NNW 05:14:44 74° W 05:21:05 10° S
ERS-2 3.6 05:11:56 10° N 05:14:12 26° NW 05:14:12 26° NW
Cosmos 1934 Rocket 4.4 05:09:42 10° NNW 05:15:27 39° W 05:16:46 35° WSW
Aureole 2 Rocket 3.6 05:12:00 10° NNW 05:15:33 44° ENE 05:18:46 10° SE
EXPRESS MD2 3.2 05:16:24 52° S 05:16:24 52° S 05:20:38 10° ESE
Cosmos 968 Rocket 4.0 05:17:43 36° W 05:18:39 40° WNW 05:23:30 10° NNE
Cosmos 1605 Rocket 4.1 05:12:48 10° NNW 05:18:41 50° W 05:23:38 15° SSW
Cosmos 2344 3.7 05:16:59 29° SW 05:21:36 80° NW 05:31:07 10° NE
Thor Agena Rocket 3.5 05:17:12 10° SSE 05:22:31 90° WSW 05:27:51 10° NNW
Cosmos 1461 3.9 05:22:33 32° WNW 05:23:21 34° NW 05:27:16 10° NNE
IRS-1D 4.5 05:19:46 10° N 05:24:25 31° WNW 05:25:21 29° W
PAYLOAD B 4.2 05:20:11 10° NNE 05:25:43 85° ESE 05:31:15 10° SSW
CZ-4B R/B 3.1 05:21:27 10° NNE 05:25:49 82° ESE 05:29:35 15° SSW
Meteor 1-15 Rocket 4.3 05:20:20 10° N 05:25:56 80° ENE 05:31:33 10° SSE
COS B Rocket 3.0 05:26:25 40° SE 05:26:52 48° E 05:29:21 10° N
USA 116 4.5 05:25:28 10° SSE 05:30:28 71° ENE 05:34:58 10° N
Cosmos 1339 Rocket 4.5 05:24:22 10° SSW 05:30:44 77° W 05:37:12 10° N
Cosmos 1025 Rocket 2.9 05:28:00 21° SSW 05:30:54 80° WNW 05:35:14 10° N
Lacrosse 5 rocket 2.1 05:29:15 32° WNW 05:30:57 48° NNW 05:35:17 10° NE
Cosmos 2082 3.6 05:28:45 21° SSW 05:32:38 89° WNW 05:38:18 10° NNE
Cosmos 2333 Rocket 2.9 05:30:01 10° NW 05:34:51 29° WSW 05:39:39 10° SSW
Okean O Rocket 1.6 05:30:56 10° N 05:35:18 63° WNW 05:37:51 24° SW
Cosmos 2098 Rocket 3.6 05:31:56 10° N 05:35:28 54° E 05:39:53 10° SSE
NOSS 3-2 (A) 4.5 05:29:20 10° NW 05:35:52 34° WSW 05:42:47 10° S
SeaSat 1 4.4 05:32:30 10° ESE 05:36:46 30° NE 05:41:03 10° NNW
Cosmos 1174 4.1 05:37:41 10° NNW 05:40:36 47° NE 05:43:37 10° SE
Cosmos 1606 Rocket 3.6 05:36:30 10° NNW 05:40:47 52° W 05:45:00 10° S
Okean 2 3.4 05:40:34 10° S 05:44:44 84° E 05:48:54 10° N
Cosmos 1726 Rocket 3.7 05:47:33 10° NNW 05:51:48 47° W 05:55:59 10° SSW
Cosmos 1666 3.0 05:48:45 10° NNW 05:52:28 44° W 05:56:08 10° SSW
Meteor 1-19 Rocket 4.3 05:47:23 10° SSW 05:52:51 57° WNW 05:58:23 10° N
Cosmos 2061 Rocket 4.0 05:47:20 10° NNW 05:53:35 67° W 05:59:51 10° S
CZ-3A R/B 3.1 05:52:58 16° WNW 05:56:16 53° SW 06:04:33 10° SE
CZ-4B R/B 3.2 05:51:00 10° N 05:56:18 61° WNW 06:01:41 10° SSW
Tiangong 1 2.9 05:55:30 16° SSW 05:56:32 19° S 05:58:48 10° SE
Cosmos 2100 Rocket 4.0 05:50:42 10° NNW 05:56:46 57° W 06:02:53 10° S
Cosmos 1802 Rocket 3.9 05:50:53 10° NNW 05:57:02 70° W 06:03:08 10° S
Cosmos 1898 Rocket 3.8 05:52:25 10° SSW 05:57:42 70° ESE 06:02:59 10° NNE
Cosmos 2237 Rocket 3.2 05:55:03 10° NW 05:59:21 23° WSW 06:03:38 10° SSW
Lacrosse 5 1.9 05:57:13 18° SW 06:01:01 86° SSE 06:06:06 10° ENE
Cosmos 192 4.3 05:57:45 10° NNW 06:02:45 87° WSW 06:07:41 10° SSE
Cosmos 292 Rocket 4.4 05:59:22 10° NW 06:03:46 35° WSW 06:08:09 10° SSW
Cosmos 1602 Rocket 4.3 06:01:11 10° S 06:05:32 56° E 06:09:52 10° NNE
ATLAS 5 CENTAUR R/B 3.4 06:01:11 10° WNW 06:05:50 24° WSW 06:10:43 10° SSW
Cosmos 220 Rocket 4.3 06:03:46 17° SW 06:06:43 44° WNW 06:10:47 10° NNE
Cosmos 1892 Rocket 3.7 06:03:29 10° SSW 06:07:54 55° WNW 06:12:20 10° N
Meteor 2-4 Rocket 3.9 06:02:10 10° SSW 06:07:56 59° WNW 06:13:50 10° N
ARIANE 5 R/B 4.3 06:06:13 10° NNW 06:08:48 14° NW 06:10:30 12° WNW
Cosmos 1725 Rocket 4.1 06:03:11 10° N 06:09:33 88° E 06:15:50 10° S
PSLV R/B 3.5 06:05:27 10° N 06:09:47 65° WNW 06:14:03 10° SSW
ADEOS II 2.0 06:06:21 10° NNE 06:11:39 79° WNW 06:16:54 10° SSW
Cosmos 1937 Rocket 3.9 06:06:29 10° S 06:11:40 67° ESE 06:16:56 10° NNE
ADEOS Rocket 3.4 06:04:20 10° NNE 06:11:40 68° WNW 06:18:15 10° SSW
SKYMED 2 4.3 06:07:48 10° SSE 06:12:03 59° ENE 06:16:21 10° N
Meteor 1-23 Rocket 4.3 06:06:38 10° SSW 06:12:11 59° WNW 06:17:52 10° N
CENTAUR R/B 3.1 06:04:45 10° NW 06:12:22 66° SW 06:20:31 10° SSE
Meteor PRIRODA 3.6 06:15:06 10° N 06:18:51 71° WNW 06:22:33 10° SSW
SL-16 R/B 2.8 06:14:13 10° NW 06:19:18 34° WSW 06:24:21 10° S
Cosmos 2228 3.4 06:19:09 10° NNW 06:23:18 41° W 06:27:24 10° SSW
USA 129 2.2 06:23:12 10° SSW 06:24:53 26° WSW 06:26:25 10° NW
RESURS DK-1 2.9 06:21:58 11° WSW 06:25:40 41° NW 06:29:37 10° NNE
Cosmos 1812 Rocket 3.6 06:21:16 10° N 06:25:43 85° W 06:30:11 10° S
CZ-2D R/B 4.0 06:25:32 10° NNW 06:27:50 13° NW 06:30:08 10° WNW
Cosmos 1346 Rocket 3.7 06:27:42 10° SW 06:31:12 29° WNW 06:34:47 10° N
Cosmos 2016 Rocket 4.3 06:26:14 10° NNW 06:32:16 47° W 06:38:14 10° SSW
Cosmos 2227 Rocket 3.0 06:31:45 10° WSW 06:36:54 34° NW 06:42:04 10° NNE
Okean-O 3.0 06:34:25 10° N 06:38:40 44° WNW 06:42:53 10° SW
BREEZE M DEB (TANK) 3.6 06:36:43 10° W 06:40:26 86° S 06:54:05 10° E
Cosmos 2084 Rocket 3.2 06:38:06 10° NW 06:41:58 89° NE 06:45:57 10° SE
NOSS 3-4 (A) 4.0 06:36:11 10° WSW 06:42:23 48° NNW 06:48:53 10° NE
NOSS 3-4 (C) 4.0 06:36:16 10° WSW 06:42:29 48° NNW 06:48:59 10° NE
Cosmos 2058 Rocket 4.3 06:39:22 10° NW 06:42:35 20° W 06:45:48 10° SW
Cosmos 468 4.5 06:39:02 10° NNW 06:44:16 77° WSW 06:49:29 10° SSE
USA 102 3.4 06:42:55 10° SE 06:45:15 72° ENE 06:48:20 10° NNW
Cosmos 2297 Rocket 2.8 06:40:55 10° WSW 06:46:10 38° NW 06:51:28 10° NNE
Meteor 1-22 Rocket 4.3 06:41:43 10° NNW 06:47:11 88° E 06:52:50 10° S
CZ-4B R/B 3.9 06:44:13 10° N 06:48:10 56° WNW 06:51:55 10° SSW
Meteor 1-28 Rocket 4.0 06:45:10 10° SSE 06:48:53 57° ENE 06:52:37 10° N
BREEZE-M DEB (TANK) 4.4 06:37:37 10° WNW 06:49:36 37° SW 06:53:31 10° SSE
SL-24 R/B 4.1 06:46:21 10° NNE 06:50:58 86° WNW 06:55:00 10° SSW
Iridium 4 Rocket 3.9 06:46:46 10° SSE 06:51:32 61° E 06:55:57 10° N
